This is the latest recevied weather packets stored in our database for station/object K3HW. If no packets are shown the sender has not sent any weather packets the latest 10 day(s).
| Time | Temp. | Humidity | Pressure | Rain* | Wind** | Luminosity | Snow |
|---|---|---|---|---|---|---|---|
| 1778119839 | 17.22° C | 87% | 1012.5 hPa | 0 mm | - | 0 W/m² | - |
| 1778119537 | 17.22° C | 88% | 1012.5 hPa | 0 mm | - | 0 W/m² | - |
| 1778119234 | 17.22° C | 88% | 1012.3 hPa | 0 mm | - | 0 W/m² | - |
| 1778118932 | 17.22° C | 88% | 1012.4 hPa | 0 mm | - | 0 W/m² | - |
| 1778118629 | 17.22° C | 88% | 1012.7 hPa | 1.27 mm | - | 0 W/m² | - |
| 1778118326 | 17.78° C | 88% | 1012.8 hPa | 1.27 mm | - | 0 W/m² | - |
| 1778118021 | 17.78° C | 88% | 1012.3 hPa | 0 mm | - | 0 W/m² | - |
| 1778117718 | 17.78° C | 88% | 1012.5 hPa | 0 mm | - | 0 W/m² | - |
| 1778117416 | 17.78° C | 88% | 1012.4 hPa | 0 mm | - | 0 W/m² | - |
| 1778117112 | 17.78° C | 87% | 1012.5 hPa | 0 mm | - | 0 W/m² | - |
| 1778116809 | 17.78° C | 87% | 1012.3 hPa | 3.56 mm | - | 0 W/m² | - |
| 1778116506 | 17.78° C | 86% | 1012.5 hPa | 4.83 mm | - | 0 W/m² | - |
| 1778116202 | 18.33° C | 84% | 1012.1 hPa | 3.05 mm | - | 0 W/m² | - |
| 1778115896 | 18.89° C | 82% | 1012.3 hPa | 1.78 mm | - | 0 W/m² | - |
| 1778115593 | 18.89° C | 80% | 1012.1 hPa | 0 mm | - | 0 W/m² | - |
| 1778115291 | 18.89° C | 80% | 1012 hPa | 0 mm | - | 0 W/m² | - |
| 1778114987 | 18.89° C | 80% | 1012 hPa | 0 mm | - | 0 W/m² | - |
| 1778114684 | 18.89° C | 79% | 1011.8 hPa | 0 mm | - | 0 W/m² | - |
| 1778114382 | 18.89° C | 79% | 1011.5 hPa | 0 mm | - | 0 W/m² | - |
| 1778114077 | 18.89° C | 79% | 1011.5 hPa | 0 mm | - | 0 W/m² | - |
| 1778113772 | 18.89° C | 79% | 1011.5 hPa | 0 mm | - | 0 W/m² | - |
| 1778113468 | 18.89° C | 78% | 1011.2 hPa | 0 mm | - | 0 W/m² | - |
| 1778113166 | 18.89° C | 78% | 1011.3 hPa | 0 mm | - | 0 W/m² | - |
| 1778112862 | 18.89° C | 79% | 1011.3 hPa | 0 mm | - | 0 W/m² | - |
| 1778112560 | 18.89° C | 79% | 1011.4 hPa | 0 mm | - | 0 W/m² | - |
* Rain latest hour (hover to see other rain measurements)
** Current wind speed in m/s (hover to see current wind gust speed)